Weather in Pikalevo

Russia / Saint-Petersburg and Leningrad Oblast     59°30′47″N   34°10′38″E
temp.,
°C
wind,
m/s
gust,
m/s
humid.,
%
clouds,
%
prec.,
mm/h
press.,
hPa
HPBL,
m
22 april, thu
thu2200:000sw3898100 0.2 1004734
03:00+1ssw2999100 0.4 1005582
06:00+1sse1399100 0.2 1005206
09:00+2s2496100 2.1 1006264
12:00+8ssw367997 0.1 1007848
15:00+11wsw375979 0.1 10081281
18:00+11sw24608 0.0 1008238
21:00+6se22815 0.1 100930
23 april, fri
fri2300:00+6se4138262 0.0 1007288
03:00+5sse3119097 0.1 1007339
06:00+5sse3997100 0.0 1006315
09:00+3wsw2698100 5.3 1007350
12:00+7ssw357492 0.9 10081077
15:00+8ssw4772100 1.2 10081171
18:00+7ssw486769 0.7 10091308
21:00+3sse2485100 0.8 101080
24 april, sat
sat2400:00+2s2287100 0.0 101039
03:00+1sse1186100 0.0 100913
06:00+2sw1186100 0.0 100820
09:00+3wnw1278100 0.0 1007379
12:00+5wnw2272100 0.1 1006876
15:00+6wnw2466100 0.8 10061109
18:00+6wnw146299 0.3 10051207
21:00+2sse117492 0.4 100610
25 april, sun
sun2500:000s11848 0.0 100512
03:00−1ssw22925 0.0 100540
06:00−1ssw249624 0.0 1005157
09:00+1ssw2381100 0.0 1005641
12:00+4sw2464100 0.0 10061246
15:00+4sw346397 0.2 10071063
18:00+4sw236329 0.2 1007933
21:000ssw118442 0.2 100810
26 april, mon
mon2600:00−1ssw119181 0.0 100814
03:00+1ssw227997 0.0 100856
06:00+1sw248098 0.0 1008160
09:00+4wsw346596 0.0 1008895
12:00+6w345588 0.6 10081466
15:00+7w345292 1.6 10081557
18:00+5w3570100 1.1 1008802
21:00+2wsw2596100 1.8 1009415